Tracking 22458 objects as of 2-Mar-2021
HD Live streaming from Space Station
objects crossing your sky now

COSMOS 249 DEB

Track COSMOS 249 DEB now!
10-day predictions


NORAD ID: 6764
Int'l Code: 1968-091CK
Perigee: 919.0 km
Apogee: 2,129.7 km
Inclination: 62.3 °
Period: 116.4 minutes
Semi major axis: 7895 km
RCS: 0.0142 m2 (small)
Launch date: October 20, 1968
Source: Commonwealth of Independent States (former USSR) (CIS)
Launch site: TYURATAM MISSILE AND SPACE COMPLEX (TTMTR)

Note: This is SATELLITE DEBRIS
aabbcc
Your satellite tracking list
Your tracking list is empty




NASA's NSSDC Master Catalog

Two Line Element Set (TLE):
1 06764U 68091CK  21060.31850699  .00000028  00000-0  28274-3 0  9993
2 06764  62.3409  28.9705 0766725   2.4605 140.8796 12.37508437485787
Source of the keplerian elements: AFSPC